Time,TemperatureF,DewpointF,PressureIn,WindDirection,WindDirectionDegrees,WindSpeedMPH,WindSpeedGustMPH,Humidity,HourlyPrecipIn,Conditions,Clouds,dailyrainin,SolarRadiationWatts/m^2,SoftwareType,DateUTC
2013-06-14 00:07:00,52.4,49.3,29.69,South,175,0.0,0.0,89,0.00,CLR,FEW,0.00,0.0,WeatherDisplay:10.37,2013-06-14 04:07:00,
2013-06-14 00:17:00,52.1,49.3,29.69,South,175,0.0,0.0,90,0.00,CLR,FEW,0.00,0.0,WeatherDisplay:10.37,2013-06-14 04:17:00,
2013-06-14 00:22:00,51.9,49.1,29.69,South,175,0.0,1.0,90,0.00,CLR,FEW,0.00,0.0,WeatherDisplay:10.37,2013-06-14 04:22:00,
2013-06-14 00:27:00,51.8,48.7,29.69,South,175,0.0,0.0,89,0.00,CLR,FEW,0.00,0.0,WeatherDisplay:10.37,2013-06-14 04:27:00,
2013-06-14 00:32:00,51.8,48.6,29.69,South,175,0.0,1.0,89,0.00,CLR,FEW,0.00,0.0,WeatherDisplay:10.37,2013-06-14 04:32:00,
2013-06-14 00:37:00,51.8,48.4,29.69,South,175,0.0,1.0,88,0.00,CLR,FEW,0.00,0.0,WeatherDisplay:10.37,2013-06-14 04:37:00,
2013-06-14 00:42:00,51.9,48.4,29.68,South,175,0.0,0.0,88,0.00,CLR,FEW,0.00,0.0,WeatherDisplay:10.37,2013-06-14 04:42:00,
2013-06-14 00:47:00,51.9,49.1,29.69,South,175,0.0,0.0,90,0.00,CLR,FEW,0.00,0.0,WeatherDisplay:10.37,2013-06-14 04:47:00,
2013-06-14 00:52:00,51.8,48.4,29.68,South,175,0.0,0.0,88,0.00,CLR,FEW,0.00,0.0,WeatherDisplay:10.37,2013-06-14 04:52:00,
2013-06-14 00:57:00,51.7,48.3,29.68,South,175,0.0,0.0,88,0.00,CLR,FEW,0.00,0.0,WeatherDisplay:10.37,2013-06-14 04:57:00,
2013-06-14 01:07:00,51.5,48.4,29.68,South,175,0.0,1.0,89,0.00,CLR,FEW,0.00,0.0,WeatherDisplay:10.37,2013-06-14 05:07:00,
2013-06-14 01:17:00,51.2,48.1,29.68,South,175,0.0,0.0,89,0.00,CLR,FEW,0.00,0.0,WeatherDisplay:10.37,2013-06-14 05:17:00,
2013-06-14 01:22:00,51.1,48.3,29.67,South,175,0.0,0.0,90,0.00,CLR,FEW,0.00,0.0,WeatherDisplay:10.37,2013-06-14 05:22:00,
2013-06-14 01:27:00,50.9,48.1,29.67,South,175,0.0,0.0,90,0.00,CLR,FEW,0.00,0.0,WeatherDisplay:10.37,2013-06-14 05:27:00,
2013-06-14 01:32:00,50.8,48.3,29.67,South,175,0.0,0.0,91,0.00,CLR,FEW,0.00,0.0,WeatherDisplay:10.37,2013-06-14 05:32:00,
2013-06-14 01:37:00,50.6,47.8,29.67,South,175,0.0,0.0,90,0.00,CLR,FEW,0.00,0.0,WeatherDisplay:10.37,2013-06-14 05:37:00,
2013-06-14 01:42:00,50.5,48.0,29.67,South,175,0.0,0.0,91,0.00,CLR,FEW,0.00,0.0,WeatherDisplay:10.37,2013-06-14 05:42:00,
2013-06-14 01:47:00,50.4,47.9,29.67,South,175,0.0,0.0,91,0.00,CLR,FEW,0.00,0.0,WeatherDisplay:10.37,2013-06-14 05:47:00,
2013-06-14 01:52:00,50.4,47.9,29.66,South,175,0.0,0.0,91,0.00,CLR,FEW,0.00,0.0,WeatherDisplay:10.37,2013-06-14 05:52:00,
2013-06-14 01:57:00,50.3,47.8,29.66,South,175,0.0,0.0,91,0.00,CLR,FEW,0.00,0.0,WeatherDisplay:10.37,2013-06-14 05:57:00,
2013-06-14 02:07:00,50.3,48.1,29.66,South,175,0.0,0.0,92,0.00,CLR,FEW,0.00,0.0,WeatherDisplay:10.37,2013-06-14 06:07:00,
2013-06-14 02:17:00,50.3,48.4,29.66,South,175,0.0,0.0,93,0.00,CLR,FEW,0.00,0.0,WeatherDisplay:10.37,2013-06-14 06:17:00,
2013-06-14 02:22:00,50.3,48.6,29.66,South,175,0.0,0.0,94,0.00,CLR,FEW,0.00,0.0,WeatherDisplay:10.37,2013-06-14 06:22:00,
2013-06-14 02:27:00,50.3,48.6,29.66,South,175,0.0,1.0,94,0.00,CLR,FEW,0.00,0.0,WeatherDisplay:10.37,2013-06-14 06:27:00,
2013-06-14 02:32:00,50.2,48.6,29.66,South,175,0.0,0.0,94,0.00,SCT,FEW,0.00,0.0,WeatherDisplay:10.37,2013-06-14 06:32:00,
2013-06-14 02:37:00,50.2,48.5,29.65,South,175,0.0,0.0,94,0.00,SCT,FEW,0.00,0.0,WeatherDisplay:10.37,2013-06-14 06:37:00,
2013-06-14 02:42:00,50.0,48.3,29.65,South,175,0.0,0.0,94,0.00,SCT,FEW,0.00,0.0,WeatherDisplay:10.37,2013-06-14 06:42:00,
2013-06-14 02:47:00,49.9,48.2,29.65,South,175,0.0,0.0,94,0.00,BKN,FEW,0.00,0.0,WeatherDisplay:10.37,2013-06-14 06:47:00,
2013-06-14 02:52:00,49.6,48.0,29.65,South,175,0.0,0.0,94,0.00,BKN,FEW,0.00,0.0,WeatherDisplay:10.37,2013-06-14 06:52:00,
2013-06-14 02:57:00,49.6,48.2,29.65,South,175,0.0,0.0,95,0.00,BKN,FEW,0.00,0.0,WeatherDisplay:10.37,2013-06-14 06:57:00,
2013-06-14 03:07:00,49.4,48.0,29.65,South,175,0.0,0.0,95,0.00,OVC,FEW,0.00,0.0,WeatherDisplay:10.37,2013-06-14 07:07:00,
2013-06-14 03:17:00,49.3,47.9,29.65,South,175,0.0,0.0,95,0.00,OVC,FEW,0.00,0.0,WeatherDisplay:10.37,2013-06-14 07:17:00,
2013-06-14 03:22:00,49.2,47.9,29.65,South,175,0.0,0.0,95,0.00,OVC,FEW,0.00,0.0,WeatherDisplay:10.37,2013-06-14 07:22:00,
2013-06-14 03:27:00,49.1,47.7,29.65,South,175,0.0,0.0,95,0.00,OVC,FEW,0.00,0.0,WeatherDisplay:10.37,2013-06-14 07:27:00,
2013-06-14 03:32:00,49.1,47.7,29.65,South,175,0.0,0.0,95,0.00,OVC,FEW,0.00,0.0,WeatherDisplay:10.37,2013-06-14 07:32:00,
2013-06-14 03:37:00,49.0,47.6,29.65,South,175,0.0,0.0,95,0.00,OVC,FEW,0.00,0.0,WeatherDisplay:10.37,2013-06-14 07:37:00,
2013-06-14 03:42:00,49.0,47.6,29.65,South,175,0.0,0.0,95,0.00,OVC,FEW,0.00,0.0,WeatherDisplay:10.37,2013-06-14 07:42:00,
2013-06-14 03:47:00,48.8,47.4,29.65,South,175,0.0,0.0,95,0.00,OVC,FEW,0.00,0.0,WeatherDisplay:10.37,2013-06-14 07:47:00,
2013-06-14 03:52:00,48.7,47.6,29.65,South,175,0.0,0.0,96,0.00,OVC,FEW,0.00,0.0,WeatherDisplay:10.37,2013-06-14 07:52:00,
2013-06-14 03:57:00,48.6,47.5,29.66,South,175,0.0,0.0,96,0.00,OVC,FEW,0.00,0.0,WeatherDisplay:10.37,2013-06-14 07:57:00,
2013-06-14 04:07:00,48.4,47.3,29.66,South,175,0.0,0.0,96,0.00,OVC,FEW,0.00,0.0,WeatherDisplay:10.37,2013-06-14 08:07:00,
2013-06-14 04:17:00,48.3,47.2,29.67,South,175,0.0,0.0,96,0.00,OVC,FEW,0.00,0.0,WeatherDisplay:10.37,2013-06-14 08:17:00,
2013-06-14 04:22:00,48.3,47.2,29.67,South,175,0.0,0.0,96,0.00,OVC,FEW,0.00,0.0,WeatherDisplay:10.37,2013-06-14 08:22:00,
2013-06-14 04:27:00,48.4,47.3,29.67,South,175,0.0,0.0,96,0.00,OVC,FEW,0.00,0.0,WeatherDisplay:10.37,2013-06-14 08:27:00,
2013-06-14 04:32:00,48.4,47.3,29.67,South,175,0.0,0.0,96,0.00,OVC,FEW,0.00,0.0,WeatherDisplay:10.37,2013-06-14 08:32:00,
2013-06-14 04:37:00,48.3,47.2,29.67,South,175,0.0,0.0,96,0.00,OVC,FEW,0.00,0.0,WeatherDisplay:10.37,2013-06-14 08:37:00,
2013-06-14 04:42:00,48.2,47.1,29.67,South,175,0.0,0.0,96,0.00,OVC,FEW,0.00,0.0,WeatherDisplay:10.37,2013-06-14 08:42:00,
2013-06-14 04:47:00,48.1,47.1,29.67,South,175,0.0,0.0,96,0.00,OVC,FEW,0.00,0.0,WeatherDisplay:10.37,2013-06-14 08:47:00,
2013-06-14 04:52:00,48.1,47.0,29.67,South,175,0.0,0.0,96,0.00,OVC,FEW,0.00,0.0,WeatherDisplay:10.37,2013-06-14 08:52:00,
2013-06-14 04:57:00,48.0,46.9,29.67,South,175,0.0,0.0,96,0.00,OVC,FEW,0.00,0.0,WeatherDisplay:10.37,2013-06-14 08:57:00,
2013-06-14 05:07:00,47.9,46.8,29.67,South,175,0.0,0.0,96,0.00,OVC,FEW,0.00,0.0,WeatherDisplay:10.37,2013-06-14 09:07:00,
2013-06-14 05:17:00,47.7,46.6,29.67,South,175,0.0,0.0,96,0.00,OVC,FEW,0.00,9.0,WeatherDisplay:10.37,2013-06-14 09:17:00,
2013-06-14 05:22:00,47.7,46.6,29.68,South,175,0.0,0.0,96,0.00,OVC,FEW,0.00,11.0,WeatherDisplay:10.37,2013-06-14 09:22:00,
2013-06-14 05:27:00,47.6,46.5,29.68,South,175,0.0,0.0,96,0.00,OVC,FEW,0.00,14.0,WeatherDisplay:10.37,2013-06-14 09:27:00,
2013-06-14 05:32:00,47.5,46.4,29.68,South,175,0.0,0.0,96,0.00,OVC,FEW,0.00,14.0,WeatherDisplay:10.37,2013-06-14 09:32:00,
2013-06-14 05:37:00,47.5,46.4,29.68,South,175,0.0,0.0,96,0.00,OVC,FEW,0.00,18.0,WeatherDisplay:10.37,2013-06-14 09:37:00,
2013-06-14 05:42:00,47.4,46.4,29.68,South,175,0.0,0.0,96,0.00,OVC,FEW,0.00,23.0,WeatherDisplay:10.37,2013-06-14 09:42:00,
2013-06-14 05:47:00,47.4,46.3,29.68,South,175,0.0,0.0,96,0.00,OVC,FEW,0.00,25.0,WeatherDisplay:10.37,2013-06-14 09:47:00,
2013-06-14 05:52:00,47.4,46.6,29.68,South,175,0.0,0.0,97,0.00,OVC,FEW,0.00,28.0,WeatherDisplay:10.37,2013-06-14 09:52:00,
2013-06-14 05:57:00,47.5,46.7,29.68,South,175,0.0,0.0,97,0.00,OVC,FEW,0.00,33.0,WeatherDisplay:10.37,2013-06-14 09:57:00,
2013-06-14 06:07:00,47.5,46.7,29.68,South,175,0.0,0.0,97,0.00,OVC,FEW,0.00,42.0,WeatherDisplay:10.37,2013-06-14 10:07:00,
2013-06-14 06:17:00,47.6,46.8,29.68,South,175,0.0,0.0,97,0.00,OVC,FEW,0.00,67.0,WeatherDisplay:10.37,2013-06-14 10:17:00,
2013-06-14 06:22:00,47.8,47.0,29.68,South,175,0.0,0.0,97,0.00,OVC,FEW,0.00,65.0,WeatherDisplay:10.37,2013-06-14 10:22:00,
2013-06-14 06:27:00,47.9,47.1,29.68,South,175,0.0,0.0,97,0.00,OVC,FEW,0.00,70.0,WeatherDisplay:10.37,2013-06-14 10:27:00,
2013-06-14 06:32:00,48.0,47.2,29.68,South,175,0.0,0.0,97,0.00,OVC,FEW,0.00,76.0,WeatherDisplay:10.37,2013-06-14 10:32:00,
2013-06-14 06:37:00,48.1,47.3,29.68,South,175,0.0,0.0,97,0.00,OVC,FEW,0.00,91.0,WeatherDisplay:10.37,2013-06-14 10:37:00,
2013-06-14 06:42:00,48.2,47.4,29.68,South,175,0.0,0.0,97,0.00,OVC,FEW,0.00,93.0,WeatherDisplay:10.37,2013-06-14 10:42:00,
2013-06-14 06:47:00,48.3,47.5,29.68,South,175,0.0,0.0,97,0.00,OVC,FEW,0.00,95.0,WeatherDisplay:10.37,2013-06-14 10:47:00,
2013-06-14 06:52:00,48.4,47.6,29.68,South,175,0.0,0.0,97,0.00,OVC,FEW,0.00,98.0,WeatherDisplay:10.37,2013-06-14 10:52:00,
2013-06-14 06:57:00,48.4,47.6,29.68,South,175,0.0,0.0,97,0.00,OVC,FEW,0.00,111.0,WeatherDisplay:10.37,2013-06-14 10:57:00,
2013-06-14 07:07:00,48.5,47.7,29.68,South,175,0.0,0.0,97,0.00,OVC,FEW,0.00,128.0,WeatherDisplay:10.37,2013-06-14 11:07:00,
2013-06-14 07:17:00,48.7,47.6,29.68,South,175,0.0,0.0,96,0.00,OVC,FEW,0.00,146.0,WeatherDisplay:10.37,2013-06-14 11:17:00,
2013-06-14 07:22:00,48.8,47.7,29.68,South,176,0.0,0.0,96,0.00,OVC,FEW,0.00,153.0,WeatherDisplay:10.37,2013-06-14 11:22:00,
2013-06-14 07:27:00,49.1,48.0,29.68,South,176,0.0,0.0,96,0.00,OVC,FEW,0.00,209.0,WeatherDisplay:10.37,2013-06-14 11:27:00,
2013-06-14 07:32:00,49.4,48.3,29.68,South,176,0.0,0.0,96,0.00,OVC,FEW,0.00,227.0,WeatherDisplay:10.37,2013-06-14 11:32:00,
2013-06-14 07:37:00,49.8,48.4,29.68,South,176,0.0,1.0,95,0.00,OVC,FEW,0.00,190.0,WeatherDisplay:10.37,2013-06-14 11:37:00,
2013-06-14 07:42:00,50.1,48.4,29.69,South,177,0.0,0.0,94,0.00,OVC,FEW,0.00,209.0,WeatherDisplay:10.37,2013-06-14 11:42:00,
2013-06-14 07:47:00,50.5,48.8,29.69,South,178,0.0,1.0,94,0.00,OVC,FEW,0.00,230.0,WeatherDisplay:10.37,2013-06-14 11:47:00,
2013-06-14 07:52:00,50.9,49.2,29.69,South,178,0.0,2.0,94,0.00,OVC,FEW,0.00,213.0,WeatherDisplay:10.37,2013-06-14 11:52:00,
2013-06-14 07:57:00,51.2,49.2,29.69,South,180,0.0,3.0,93,0.00,OVC,FEW,0.00,186.0,WeatherDisplay:10.37,2013-06-14 11:57:00,
2013-06-14 08:07:00,51.6,49.7,29.69,South,179,0.0,1.0,93,0.00,OVC,FEW,0.00,287.0,WeatherDisplay:10.37,2013-06-14 12:07:00,
2013-06-14 08:17:00,52.1,50.1,29.69,South,179,0.0,3.0,93,0.00,OVC,FEW,0.00,272.0,WeatherDisplay:10.37,2013-06-14 12:17:00,
2013-06-14 08:22:00,52.5,50.2,29.69,South,180,0.0,1.0,92,0.00,OVC,FEW,0.00,246.0,WeatherDisplay:10.37,2013-06-14 12:22:00,
2013-06-14 08:27:00,52.7,49.9,29.69,South,180,0.0,1.0,90,0.00,OVC,FEW,0.00,278.0,WeatherDisplay:10.37,2013-06-14 12:27:00,
2013-06-14 08:32:00,53.0,49.9,29.69,South,182,0.0,2.0,89,0.00,OVC,FEW,0.00,353.0,WeatherDisplay:10.37,2013-06-14 12:32:00,
2013-06-14 08:37:00,53.4,49.9,29.69,South,182,0.0,1.0,88,0.00,OVC,FEW,0.00,271.0,WeatherDisplay:10.37,2013-06-14 12:37:00,
2013-06-14 08:42:00,53.8,50.3,29.69,South,183,0.0,1.0,88,0.00,OVC,FEW,0.00,352.0,WeatherDisplay:10.37,2013-06-14 12:42:00,
2013-06-14 08:47:00,54.4,50.6,29.69,South,182,0.0,2.0,87,0.00,OVC,FEW,0.00,404.0,WeatherDisplay:10.37,2013-06-14 12:47:00,
2013-06-14 08:52:00,54.9,50.8,29.69,South,171,0.0,3.0,86,0.00,OVC,FEW,0.00,478.0,WeatherDisplay:10.37,2013-06-14 12:52:00,
2013-06-14 08:57:00,55.5,51.7,29.69,SSE,165,0.0,1.0,87,0.00,OVC,FEW,0.00,482.0,WeatherDisplay:10.37,2013-06-14 12:57:00,
2013-06-14 09:07:00,56.3,51.5,29.69,SSE,163,0.0,3.0,84,0.00,BKN,FEW,0.00,478.0,WeatherDisplay:10.37,2013-06-14 13:07:00,
2013-06-14 09:17:00,56.3,51.8,29.69,SSE,163,0.0,3.0,85,0.00,BKN,FEW,0.00,612.0,WeatherDisplay:10.37,2013-06-14 13:17:00,
2013-06-14 09:22:00,56.8,51.3,29.69,SSE,158,2.0,4.0,82,0.00,BKN,FEW,0.00,643.0,WeatherDisplay:10.37,2013-06-14 13:22:00,
2013-06-14 09:27:00,57.2,51.8,29.69,SSE,156,1.0,4.0,82,0.00,BKN,FEW,0.00,629.0,WeatherDisplay:10.37,2013-06-14 13:27:00,
2013-06-14 09:32:00,57.8,52.0,29.69,SSE,156,2.0,5.0,81,0.00,SCT,FEW,0.00,510.0,WeatherDisplay:10.37,2013-06-14 13:32:00,
2013-06-14 09:37:00,58.0,52.2,29.69,SE,146,1.0,5.0,81,0.00,SCT,FEW,0.00,661.0,WeatherDisplay:10.37,2013-06-14 13:37:00,
2013-06-14 09:42:00,58.9,52.8,29.69,SE,133,2.0,4.0,80,0.00,SCT,FEW,0.00,867.0,WeatherDisplay:10.37,2013-06-14 13:42:00,
2013-06-14 09:47:00,59.6,52.7,29.69,SE,139,2.0,4.0,78,0.00,SCT,FEW,0.00,466.0,WeatherDisplay:10.37,2013-06-14 13:47:00,
2013-06-14 09:52:00,60.1,52.9,29.68,SSE,147,0.0,4.0,77,0.00,SCT,FEW,0.00,656.0,WeatherDisplay:10.37,2013-06-14 13:52:00,
2013-06-14 09:57:00,60.6,52.2,29.68,SE,145,0.0,3.0,74,0.00,SCT,FEW,0.00,770.0,WeatherDisplay:10.37,2013-06-14 13:57:00,
2013-06-14 10:07:00,61.6,48.4,29.68,SE,133,1.0,4.0,62,0.00,CLR,FEW,0.00,526.0,WeatherDisplay:10.37,2013-06-14 14:07:00,
2013-06-14 10:17:00,63.7,47.7,29.68,East,80,1.0,3.0,56,0.00,CLR,FEW,0.00,840.0,WeatherDisplay:10.37,2013-06-14 14:17:00,
2013-06-14 10:22:00,64.4,46.9,29.68,East,93,1.0,4.0,53,0.00,CLR,FEW,0.00,766.0,WeatherDisplay:10.37,2013-06-14 14:22:00,
2013-06-14 10:27:00,64.5,47.0,29.69,ESE,103,1.0,5.0,53,0.00,CLR,FEW,0.00,838.0,WeatherDisplay:10.37,2013-06-14 14:27:00,
2013-06-14 10:32:00,64.7,46.7,29.69,East,96,0.0,5.0,52,0.00,CLR,FEW,0.00,898.0,WeatherDisplay:10.37,2013-06-14 14:32:00,
2013-06-14 10:37:00,64.7,46.7,29.69,ESE,123,2.0,4.0,52,0.00,CLR,FEW,0.00,970.0,WeatherDisplay:10.37,2013-06-14 14:37:00,
2013-06-14 10:42:00,64.9,47.4,29.69,NE,56,2.0,7.0,53,0.00,CLR,FEW,0.00,933.0,WeatherDisplay:10.37,2013-06-14 14:42:00,
2013-06-14 10:47:00,65.5,47.4,29.69,NW,309,1.0,5.0,52,0.00,CLR,FEW,0.00,313.0,WeatherDisplay:10.37,2013-06-14 14:47:00,
2013-06-14 10:52:00,66.0,46.3,29.69,West,260,1.0,3.0,49,0.00,CLR,FEW,0.00,360.0,WeatherDisplay:10.37,2013-06-14 14:52:00,
2013-06-14 10:57:00,66.2,47.0,29.69,North,355,3.0,7.0,50,0.00,CLR,FEW,0.00,221.0,WeatherDisplay:10.37,2013-06-14 14:57:00,
2013-06-14 11:07:00,65.6,47.0,29.69,North,9,1.0,5.0,51,0.00,CLR,FEW,0.00,1181.0,WeatherDisplay:10.37,2013-06-14 15:07:00,
2013-06-14 11:17:00,65.4,50.2,29.69,ESE,120,1.0,9.0,58,0.00,CLR,FEW,0.00,429.0,WeatherDisplay:10.37,2013-06-14 15:17:00,
2013-06-14 11:22:00,65.8,48.7,29.69,NW,310,0.0,9.0,54,0.00,CLR,FEW,0.00,299.0,WeatherDisplay:10.37,2013-06-14 15:22:00,
2013-06-14 11:27:00,65.7,50.5,29.69,WNW,301,0.0,4.0,58,0.00,CLR,FEW,0.00,896.0,WeatherDisplay:10.37,2013-06-14 15:27:00,
2013-06-14 11:32:00,65.6,48.5,29.69,WNW,283,1.0,3.0,54,0.00,CLR,FEW,0.00,501.0,WeatherDisplay:10.37,2013-06-14 15:32:00,
2013-06-14 11:37:00,66.0,48.9,29.69,NW,319,1.0,6.0,54,0.00,CLR,FEW,0.00,464.0,WeatherDisplay:10.37,2013-06-14 15:37:00,
2013-06-14 11:42:00,66.2,49.6,29.69,NNW,342,1.0,12.0,55,0.00,CLR,FEW,0.00,299.0,WeatherDisplay:10.37,2013-06-14 15:42:00,
2013-06-14 11:47:00,66.1,49.5,29.69,North,353,1.0,6.0,55,0.00,CLR,FEW,0.00,867.0,WeatherDisplay:10.37,2013-06-14 15:47:00,
2013-06-14 11:52:00,66.5,50.8,29.68,NNW,335,0.0,3.0,57,0.00,CLR,FEW,0.00,983.0,WeatherDisplay:10.37,2013-06-14 15:52:00,
2013-06-14 11:57:00,67.1,48.8,29.68,West,268,2.0,5.0,52,0.00,CLR,FEW,0.00,592.0,WeatherDisplay:10.37,2013-06-14 15:57:00,
2013-06-14 12:07:00,66.8,50.1,29.68,NNE,21,1.0,10.0,55,0.00,CLR,FEW,0.00,309.0,WeatherDisplay:10.37,2013-06-14 16:07:00,
2013-06-14 12:17:00,67.6,51.3,29.68,NNE,13,1.0,7.0,56,0.00,CLR,FEW,0.00,1215.0,WeatherDisplay:10.37,2013-06-14 16:17:00,
2013-06-14 12:22:00,67.9,49.1,29.68,NNE,15,2.0,5.0,51,0.00,CLR,FEW,0.00,371.0,WeatherDisplay:10.37,2013-06-14 16:22:00,
2013-06-14 12:27:00,68.0,51.2,29.68,NNW,342,1.0,4.0,55,0.00,CLR,FEW,0.00,1225.0,WeatherDisplay:10.37,2013-06-14 16:27:00,
2013-06-14 12:32:00,68.5,51.2,29.68,West,280,1.0,4.0,54,0.00,CLR,FEW,0.00,1042.0,WeatherDisplay:10.37,2013-06-14 16:32:00,
2013-06-14 12:37:00,68.7,49.3,29.67,WSW,242,0.0,12.0,50,0.00,CLR,FEW,0.00,1222.0,WeatherDisplay:10.37,2013-06-14 16:37:00,
2013-06-14 12:42:00,69.0,49.6,29.68,NW,320,1.0,4.0,50,0.00,CLR,FEW,0.00,954.0,WeatherDisplay:10.37,2013-06-14 16:42:00,
2013-06-14 12:47:00,68.9,49.5,29.67,North,357,1.0,7.0,50,0.00,CLR,FEW,0.00,1049.0,WeatherDisplay:10.37,2013-06-14 16:47:00,
2013-06-14 12:52:00,69.0,47.9,29.67,NNE,16,1.0,9.0,47,0.00,CLR,FEW,0.00,1264.0,WeatherDisplay:10.37,2013-06-14 16:52:00,
2013-06-14 12:57:00,68.8,48.3,29.67,SSE,157,1.0,7.0,48,0.00,CLR,FEW,0.00,287.0,WeatherDisplay:10.37,2013-06-14 16:57:00,
2013-06-14 13:07:00,68.4,47.9,29.67,North,358,2.0,7.0,48,0.00,SCT,FEW,0.00,258.0,WeatherDisplay:10.37,2013-06-14 17:07:00,
2013-06-14 13:17:00,68.4,48.5,29.67,NW,310,2.0,9.0,49,0.00,SCT,FEW,0.00,1123.0,WeatherDisplay:10.37,2013-06-14 17:17:00,
2013-06-14 13:22:00,69.2,48.7,29.67,NW,310,2.0,9.0,48,0.00,SCT,FEW,0.00,1027.0,WeatherDisplay:10.37,2013-06-14 17:22:00,
2013-06-14 13:27:00,69.7,48.0,29.66,NW,322,1.0,6.0,46,0.00,SCT,FEW,0.00,1178.0,WeatherDisplay:10.37,2013-06-14 17:27:00,
2013-06-14 13:32:00,70.0,47.7,29.67,NNW,336,6.0,14.0,45,0.00,SCT,FEW,0.00,1229.0,WeatherDisplay:10.37,2013-06-14 17:32:00,
2013-06-14 13:37:00,69.9,47.6,29.67,NE,53,1.0,12.0,45,0.00,SCT,FEW,0.00,271.0,WeatherDisplay:10.37,2013-06-14 17:37:00,
2013-06-14 13:42:00,69.5,48.3,29.67,ENE,73,0.0,3.0,47,0.00,SCT,FEW,0.00,237.0,WeatherDisplay:10.37,2013-06-14 17:42:00,
2013-06-14 13:47:00,69.0,46.8,29.67,West,271,0.0,2.0,45,0.00,SCT,FEW,0.00,304.0,WeatherDisplay:10.37,2013-06-14 17:47:00,
2013-06-14 13:52:00,68.6,47.0,29.67,North,357,2.0,6.0,46,0.00,SCT,FEW,0.00,271.0,WeatherDisplay:10.37,2013-06-14 17:52:00,
2013-06-14 13:57:00,68.8,46.0,29.67,North,2,2.0,7.0,44,0.00,SCT,FEW,0.00,1134.0,WeatherDisplay:10.37,2013-06-14 17:57:00,
2013-06-14 14:07:00,70.0,46.4,29.67,NNW,339,3.0,12.0,43,0.00,CLR,FEW,0.00,1123.0,WeatherDisplay:10.37,2013-06-14 18:07:00,
2013-06-14 14:17:00,71.0,46.8,29.67,NW,316,2.0,6.0,42,0.00,CLR,FEW,0.00,144.0,WeatherDisplay:10.37,2013-06-14 18:17:00,
2013-06-14 14:22:00,71.1,45.6,29.67,West,272,2.0,12.0,40,0.00,CLR,FEW,0.00,1172.0,WeatherDisplay:10.37,2013-06-14 18:22:00,
2013-06-14 14:27:00,71.6,45.4,29.67,WSW,256,2.0,7.0,39,0.00,CLR,FEW,0.00,758.0,WeatherDisplay:10.37,2013-06-14 18:27:00,
2013-06-14 14:32:00,72.0,45.0,29.67,WSW,252,1.0,6.0,38,0.00,CLR,FEW,0.00,410.0,WeatherDisplay:10.37,2013-06-14 18:32:00,
2013-06-14 14:37:00,71.8,44.8,29.67,WSW,253,1.0,7.0,38,0.00,CLR,FEW,0.00,478.0,WeatherDisplay:10.37,2013-06-14 18:37:00,
2013-06-14 14:42:00,71.2,44.3,29.67,WNW,287,1.0,4.0,38,0.00,CLR,FEW,0.00,274.0,WeatherDisplay:10.37,2013-06-14 18:42:00,
2013-06-14 14:47:00,70.5,46.3,29.67,NW,316,2.0,7.0,42,0.00,CLR,FEW,0.00,297.0,WeatherDisplay:10.37,2013-06-14 18:47:00,
2013-06-14 14:52:00,69.6,47.3,29.67,NW,309,2.0,7.0,45,0.00,CLR,FEW,0.00,287.0,WeatherDisplay:10.37,2013-06-14 18:52:00,
2013-06-14 14:57:00,69.1,48.6,29.67,WNW,299,1.0,5.0,48,0.00,CLR,FEW,0.00,1086.0,WeatherDisplay:10.37,2013-06-14 18:57:00,
2013-06-14 15:07:00,69.4,48.9,29.67,North,6,1.0,7.0,48,0.00,OVC,FEW,0.00,243.0,WeatherDisplay:10.37,2013-06-14 19:07:00,
2013-06-14 15:17:00,68.5,49.1,29.67,WNW,286,1.0,10.0,50,0.00,OVC,FEW,0.00,179.0,WeatherDisplay:10.37,2013-06-14 19:17:00,
2013-06-14 15:22:00,68.1,49.2,29.67,NNE,16,0.0,6.0,51,0.00,OVC,FEW,0.00,213.0,WeatherDisplay:10.37,2013-06-14 19:22:00,
2013-06-14 15:27:00,67.8,49.5,29.67,NNW,348,0.0,2.0,52,0.00,OVC,FEW,0.00,292.0,WeatherDisplay:10.37,2013-06-14 19:27:00,
2013-06-14 15:32:00,67.7,49.5,29.67,NNW,336,2.0,7.0,52,0.00,OVC,FEW,0.00,288.0,WeatherDisplay:10.37,2013-06-14 19:32:00,
2013-06-14 15:37:00,68.1,51.3,29.67,NW,323,2.0,8.0,55,0.00,OVC,FEW,0.00,940.0,WeatherDisplay:10.37,2013-06-14 19:37:00,
2013-06-14 15:42:00,68.9,50.0,29.67,WNW,303,1.0,6.0,51,0.00,OVC,FEW,0.00,947.0,WeatherDisplay:10.37,2013-06-14 19:42:00,
2013-06-14 15:47:00,69.5,50.6,29.67,NW,324,2.0,10.0,51,0.00,OVC,FEW,0.00,1046.0,WeatherDisplay:10.37,2013-06-14 19:47:00,
2013-06-14 15:52:00,70.2,48.4,29.67,NNW,334,2.0,10.0,46,0.00,OVC,FEW,0.00,1028.0,WeatherDisplay:10.37,2013-06-14 19:52:00,
2013-06-14 15:57:00,70.3,47.9,29.66,NNW,344,5.0,8.0,45,0.00,OVC,FEW,0.00,438.0,WeatherDisplay:10.37,2013-06-14 19:57:00,
2013-06-14 16:07:00,69.8,49.2,29.66,South,174,1.0,10.0,48,0.00,OVC,FEW,0.00,360.0,WeatherDisplay:10.37,2013-06-14 20:07:00,
2013-06-14 16:17:00,68.9,48.4,29.66,NW,308,3.0,7.0,48,0.00,OVC,FEW,0.00,315.0,WeatherDisplay:10.37,2013-06-14 20:17:00,
2013-06-14 16:22:00,68.4,48.5,29.66,WNW,300,1.0,13.0,49,0.00,OVC,FEW,0.00,452.0,WeatherDisplay:10.37,2013-06-14 20:22:00,
2013-06-14 16:27:00,68.4,49.0,29.66,WNW,300,0.0,5.0,50,0.00,OVC,FEW,0.00,309.0,WeatherDisplay:10.37,2013-06-14 20:27:00,
2013-06-14 16:32:00,68.6,48.7,29.66,NW,310,1.0,6.0,49,0.00,OVC,FEW,0.00,366.0,WeatherDisplay:10.37,2013-06-14 20:32:00,
2013-06-14 16:37:00,68.8,48.9,29.66,WNW,284,6.0,15.0,49,0.00,OVC,FEW,0.00,151.0,WeatherDisplay:10.37,2013-06-14 20:37:00,
2013-06-14 16:42:00,68.8,49.4,29.66,WNW,285,1.0,7.0,50,0.00,OVC,FEW,0.00,130.0,WeatherDisplay:10.37,2013-06-14 20:42:00,
2013-06-14 16:47:00,68.6,49.2,29.66,NW,309,2.0,9.0,50,0.00,OVC,FEW,0.00,682.0,WeatherDisplay:10.37,2013-06-14 20:47:00,
2013-06-14 16:52:00,68.6,48.7,29.66,NNW,347,1.0,5.0,49,0.00,OVC,FEW,0.00,105.0,WeatherDisplay:10.37,2013-06-14 20:52:00,
2013-06-14 16:57:00,68.1,49.3,29.66,NNW,346,0.0,7.0,51,0.00,OVC,FEW,0.00,151.0,WeatherDisplay:10.37,2013-06-14 20:57:00,
2013-06-14 17:07:00,67.2,47.4,29.66,NW,310,1.0,9.0,49,0.00,OVC,FEW,0.00,102.0,WeatherDisplay:10.37,2013-06-14 21:07:00,
2013-06-14 17:17:00,67.0,48.3,29.67,NNW,340,2.0,5.0,51,0.00,BKN,FEW,0.00,554.0,WeatherDisplay:10.37,2013-06-14 21:17:00,
2013-06-14 17:22:00,67.6,49.4,29.67,WNW,297,0.0,6.0,52,0.00,BKN,FEW,0.00,550.0,WeatherDisplay:10.37,2013-06-14 21:22:00,
2013-06-14 17:27:00,68.0,48.6,29.67,West,280,5.0,12.0,50,0.00,BKN,FEW,0.00,506.0,WeatherDisplay:10.37,2013-06-14 21:27:00,
2013-06-14 17:32:00,68.2,49.3,29.67,NW,315,2.0,12.0,51,0.00,BKN,FEW,0.00,499.0,WeatherDisplay:10.37,2013-06-14 21:32:00,
2013-06-14 17:37:00,68.1,48.2,29.66,WNW,301,0.0,9.0,49,0.00,BKN,FEW,0.00,141.0,WeatherDisplay:10.37,2013-06-14 21:37:00,
2013-06-14 17:42:00,68.0,49.2,29.67,WSW,253,1.0,3.0,51,0.00,BKN,FEW,0.00,476.0,WeatherDisplay:10.37,2013-06-14 21:42:00,
2013-06-14 17:47:00,68.0,48.7,29.67,West,272,1.0,5.0,50,0.00,BKN,FEW,0.00,100.0,WeatherDisplay:10.37,2013-06-14 21:47:00,
2013-06-14 17:52:00,67.7,48.4,29.67,WNW,290,2.0,10.0,50,0.00,BKN,FEW,0.00,446.0,WeatherDisplay:10.37,2013-06-14 21:52:00,
2013-06-14 17:57:00,67.6,48.8,29.67,WNW,293,1.0,9.0,51,0.00,BKN,FEW,0.00,272.0,WeatherDisplay:10.37,2013-06-14 21:57:00,
2013-06-14 18:07:00,67.0,49.8,29.67,WNW,289,0.0,7.0,54,0.00,BKN,FEW,0.00,67.0,WeatherDisplay:10.37,2013-06-14 22:07:00,
2013-06-14 18:17:00,65.8,50.6,29.68,North,350,0.0,9.0,58,0.00,BKN,FEW,0.00,46.0,WeatherDisplay:10.37,2013-06-14 22:17:00,
2013-06-14 18:22:00,65.3,50.6,29.68,North,9,0.0,3.0,59,0.00,BKN,FEW,0.00,47.0,WeatherDisplay:10.37,2013-06-14 22:22:00,
2013-06-14 18:27:00,64.8,51.0,29.68,NNE,14,1.0,3.0,61,0.00,BKN,FEW,0.00,60.0,WeatherDisplay:10.37,2013-06-14 22:27:00,
2013-06-14 18:32:00,64.1,51.7,29.68,ENE,72,0.0,2.0,64,0.00,BKN,FEW,0.00,185.0,WeatherDisplay:10.37,2013-06-14 22:32:00,
2013-06-14 18:37:00,63.6,51.7,29.68,East,80,0.0,1.0,65,0.00,BKN,FEW,0.00,185.0,WeatherDisplay:10.37,2013-06-14 22:37:00,
2013-06-14 18:42:00,63.6,50.8,29.68,ESE,113,0.0,5.0,63,0.00,BKN,FEW,0.00,127.0,WeatherDisplay:10.37,2013-06-14 22:42:00,
2013-06-14 18:47:00,63.8,51.0,29.68,East,95,0.0,4.0,63,0.00,BKN,FEW,0.00,95.0,WeatherDisplay:10.37,2013-06-14 22:47:00,
2013-06-14 18:52:00,63.9,52.7,29.68,NW,321,0.0,2.0,67,0.00,BKN,FEW,0.00,93.0,WeatherDisplay:10.37,2013-06-14 22:52:00,
2013-06-14 18:57:00,63.8,51.4,29.68,WNW,302,0.0,1.0,64,0.00,BKN,FEW,0.00,98.0,WeatherDisplay:10.37,2013-06-14 22:57:00,
2013-06-14 19:07:00,63.5,51.5,29.68,NNW,332,0.0,6.0,65,0.00,BKN,FEW,0.00,62.0,WeatherDisplay:10.37,2013-06-14 23:07:00,
2013-06-14 19:17:00,63.2,52.1,29.68,ENE,70,1.0,3.0,67,0.00,BKN,FEW,0.00,51.0,WeatherDisplay:10.37,2013-06-14 23:17:00,
2013-06-14 19:22:00,63.1,51.1,29.68,SE,143,0.0,4.0,65,0.00,BKN,FEW,0.00,44.0,WeatherDisplay:10.37,2013-06-14 23:22:00,
2013-06-14 19:27:00,63.0,51.5,29.69,ESE,102,0.0,2.0,66,0.00,BKN,FEW,0.00,37.0,WeatherDisplay:10.37,2013-06-14 23:27:00,
2013-06-14 19:32:00,62.9,51.0,29.69,NNE,26,1.0,8.0,65,0.00,BKN,FEW,0.00,33.0,WeatherDisplay:10.37,2013-06-14 23:32:00,
2013-06-14 19:37:00,62.8,51.7,29.69,NNE,26,1.0,5.0,67,0.00,BKN,FEW,0.00,32.0,WeatherDisplay:10.37,2013-06-14 23:37:00,
2013-06-14 19:42:00,62.4,51.3,29.70,ENE,58,0.0,2.0,67,0.00,BKN,FEW,0.00,35.0,WeatherDisplay:10.37,2013-06-14 23:42:00,
2013-06-14 19:47:00,62.2,51.1,29.70,ESE,118,0.0,1.0,67,0.00,BKN,FEW,0.00,37.0,WeatherDisplay:10.37,2013-06-14 23:47:00,
2013-06-14 19:52:00,61.9,50.4,29.70,ESE,111,0.0,1.0,66,0.00,BKN,FEW,0.00,30.0,WeatherDisplay:10.37,2013-06-14 23:52:00,
2013-06-14 19:57:00,61.7,51.0,29.70,ESE,114,0.0,1.0,68,0.00,BKN,FEW,0.00,26.0,WeatherDisplay:10.37,2013-06-14 23:57:00,
2013-06-14 20:07:00,61.3,49.4,29.70,NNW,338,0.0,4.0,65,0.00,CLR,FEW,0.00,21.0,WeatherDisplay:10.37,2013-06-15 00:07:00,
2013-06-14 20:17:00,60.9,49.5,29.70,NW,311,0.0,1.0,66,0.00,CLR,FEW,0.00,12.0,WeatherDisplay:10.37,2013-06-15 00:17:00,
2013-06-14 20:22:00,60.7,49.7,29.71,NW,311,0.0,1.0,67,0.00,CLR,FEW,0.00,9.0,WeatherDisplay:10.37,2013-06-15 00:22:00,
2013-06-14 20:27:00,60.4,48.6,29.71,WNW,294,0.0,2.0,65,0.00,CLR,FEW,0.00,7.0,WeatherDisplay:10.37,2013-06-15 00:27:00,
2013-06-14 20:32:00,60.1,47.9,29.71,NW,323,2.0,6.0,64,0.00,CLR,FEW,0.00,5.0,WeatherDisplay:10.37,2013-06-15 00:32:00,
2013-06-14 20:37:00,59.8,48.0,29.71,North,357,0.0,1.0,65,0.00,CLR,FEW,0.00,0.0,WeatherDisplay:10.37,2013-06-15 00:37:00,
2013-06-14 20:42:00,59.4,47.2,29.71,North,11,0.0,1.0,64,0.00,CLR,FEW,0.00,0.0,WeatherDisplay:10.37,2013-06-15 00:42:00,
2013-06-14 20:47:00,59.2,47.8,29.71,NNE,12,0.0,1.0,66,0.00,CLR,FEW,0.00,0.0,WeatherDisplay:10.37,2013-06-15 00:47:00,
2013-06-14 20:52:00,58.8,47.5,29.71,NNE,12,0.0,1.0,66,0.00,CLR,FEW,0.00,0.0,WeatherDisplay:10.37,2013-06-15 00:52:00,
2013-06-14 20:57:00,58.5,46.4,29.72,NNE,12,0.0,2.0,64,0.00,CLR,FEW,0.00,0.0,WeatherDisplay:10.37,2013-06-15 00:57:00,
2013-06-14 21:07:00,58.0,45.9,29.72,NNE,25,0.0,1.0,64,0.00,SCT,FEW,0.00,0.0,WeatherDisplay:10.37,2013-06-15 01:07:00,
2013-06-14 21:17:00,57.5,45.8,29.72,NNE,24,0.0,2.0,65,0.00,SCT,FEW,0.00,0.0,WeatherDisplay:10.37,2013-06-15 01:17:00,
2013-06-14 21:22:00,57.1,45.0,29.72,NNE,24,0.0,0.0,64,0.00,SCT,FEW,0.00,0.0,WeatherDisplay:10.37,2013-06-15 01:22:00,
2013-06-14 21:27:00,56.7,45.1,29.72,NNE,24,0.0,0.0,65,0.00,SCT,FEW,0.00,0.0,WeatherDisplay:10.37,2013-06-15 01:27:00,
2013-06-14 21:32:00,56.3,45.1,29.73,NNE,24,0.0,0.0,66,0.00,SCT,FEW,0.00,0.0,WeatherDisplay:10.37,2013-06-15 01:32:00,
2013-06-14 21:37:00,55.9,45.1,29.73,NNE,24,0.0,0.0,67,0.00,SCT,FEW,0.00,0.0,WeatherDisplay:10.37,2013-06-15 01:37:00,
2013-06-14 21:42:00,55.4,45.0,29.73,NNE,24,0.0,0.0,68,0.00,SCT,FEW,0.00,0.0,WeatherDisplay:10.37,2013-06-15 01:42:00,
2013-06-14 21:47:00,54.9,44.9,29.74,NNE,24,0.0,1.0,69,0.00,SCT,FEW,0.00,0.0,WeatherDisplay:10.37,2013-06-15 01:47:00,
2013-06-14 21:52:00,54.5,44.9,29.74,NNE,24,0.0,0.0,70,0.00,SCT,FEW,0.00,0.0,WeatherDisplay:10.37,2013-06-15 01:52:00,
2013-06-14 21:57:00,54.1,44.9,29.74,NNE,24,0.0,0.0,71,0.00,SCT,FEW,0.00,0.0,WeatherDisplay:10.37,2013-06-15 01:57:00,
2013-06-14 22:07:00,53.3,44.9,29.74,NNE,23,0.0,2.0,73,0.00,BKN,FEW,0.00,0.0,WeatherDisplay:10.37,2013-06-15 02:07:00,
2013-06-14 22:17:00,52.6,44.5,29.74,NNE,22,0.0,0.0,74,0.00,BKN,FEW,0.00,0.0,WeatherDisplay:10.37,2013-06-15 02:17:00,
2013-06-14 22:22:00,52.2,44.5,29.74,NNE,22,0.0,1.0,75,0.00,BKN,FEW,0.00,0.0,WeatherDisplay:10.37,2013-06-15 02:22:00,
2013-06-14 22:27:00,52.0,44.3,29.74,NNE,22,0.0,1.0,75,0.00,BKN,FEW,0.00,0.0,WeatherDisplay:10.37,2013-06-15 02:27:00,
2013-06-14 22:32:00,51.9,43.8,29.74,NNE,21,0.0,0.0,74,0.00,BKN,FEW,0.00,0.0,WeatherDisplay:10.37,2013-06-15 02:32:00,
2013-06-14 22:37:00,51.7,44.0,29.74,NNE,21,0.0,1.0,75,0.00,BKN,FEW,0.00,0.0,WeatherDisplay:10.37,2013-06-15 02:37:00,
2013-06-14 22:42:00,51.5,43.4,29.74,NNE,20,0.0,0.0,74,0.00,BKN,FEW,0.00,0.0,WeatherDisplay:10.37,2013-06-15 02:42:00,
2013-06-14 22:47:00,51.3,43.3,29.74,NNE,21,0.0,0.0,74,0.00,BKN,FEW,0.00,0.0,WeatherDisplay:10.37,2013-06-15 02:47:00,
2013-06-14 22:52:00,51.1,43.1,29.74,NNE,20,0.0,0.0,74,0.00,BKN,FEW,0.00,0.0,WeatherDisplay:10.37,2013-06-15 02:52:00,
2013-06-14 22:57:00,51.0,43.0,29.74,NNE,20,0.0,1.0,74,0.00,BKN,FEW,0.00,0.0,WeatherDisplay:10.37,2013-06-15 02:57:00,
2013-06-14 23:07:00,50.8,43.8,29.74,NNE,20,0.0,0.0,77,0.00,CLR,FEW,0.00,0.0,WeatherDisplay:10.37,2013-06-15 03:07:00,
2013-06-14 23:17:00,50.5,42.2,29.75,NNE,20,0.0,0.0,73,0.00,CLR,FEW,0.00,0.0,WeatherDisplay:10.37,2013-06-15 03:17:00,
2013-06-14 23:22:00,50.5,42.2,29.75,NNE,20,0.0,0.0,73,0.00,CLR,FEW,0.00,0.0,WeatherDisplay:10.37,2013-06-15 03:22:00,
2013-06-14 23:27:00,50.4,41.7,29.75,NNE,20,0.0,0.0,72,0.00,CLR,FEW,0.00,0.0,WeatherDisplay:10.37,2013-06-15 03:27:00,
2013-06-14 23:32:00,50.2,41.9,29.75,NNE,20,0.0,0.0,73,0.00,CLR,FEW,0.00,0.0,WeatherDisplay:10.37,2013-06-15 03:32:00,
2013-06-14 23:37:00,50.0,42.0,29.75,NNE,20,0.0,0.0,74,0.00,CLR,FEW,0.00,0.0,WeatherDisplay:10.37,2013-06-15 03:37:00,
2013-06-14 23:42:00,49.8,41.5,29.75,NNE,20,0.0,1.0,73,0.00,CLR,FEW,0.00,0.0,WeatherDisplay:10.37,2013-06-15 03:42:00,
2013-06-14 23:47:00,49.7,41.7,29.75,NNE,21,0.0,0.0,74,0.00,CLR,FEW,0.00,0.0,WeatherDisplay:10.37,2013-06-15 03:47:00,
2013-06-14 23:52:00,49.5,40.8,29.75,NNE,21,0.0,0.0,72,0.00,CLR,FEW,0.00,0.0,WeatherDisplay:10.37,2013-06-15 03:52:00,
2013-06-14 23:57:00,49.3,41.4,29.75,NNE,21,0.0,0.0,74,0.00,CLR,FEW,0.00,0.0,WeatherDisplay:10.37,2013-06-15 03:57:00,